TimeMDT,TemperatureF,Dew PointF,Humidity,Sea Level PressureIn,VisibilityMPH,Wind Direction,Wind SpeedMPH,Gust SpeedMPH,PrecipitationIn,Events,Conditions,WindDirDegrees,DateUTC
12:53 AM,43.0,23.0,45,30.07,10.0,SSW,4.6,-,N/A,,Clear,210,2013-04-04 06:53:00
1:53 AM,37.0,23.0,57,30.10,10.0,Calm,Calm,-,N/A,,Clear,0,2013-04-04 07:53:00
2:53 AM,39.0,25.0,57,30.07,10.0,Calm,Calm,-,N/A,,Clear,0,2013-04-04 08:53:00
3:53 AM,35.1,24.1,64,30.08,10.0,SSW,5.8,-,N/A,,Clear,200,2013-04-04 09:53:00
4:53 AM,35.1,24.1,64,30.07,10.0,Calm,Calm,-,N/A,,Clear,0,2013-04-04 10:53:00
5:53 AM,34.0,23.0,64,30.07,10.0,Calm,Calm,-,N/A,,Clear,0,2013-04-04 11:53:00
6:53 AM,33.1,24.1,70,30.08,10.0,Calm,Calm,-,N/A,,Clear,0,2013-04-04 12:53:00
7:53 AM,34.0,26.1,73,30.11,10.0,South,3.5,-,N/A,,Clear,170,2013-04-04 13:53:00
8:53 AM,46.0,28.9,51,30.09,10.0,Calm,Calm,-,N/A,,Clear,0,2013-04-04 14:53:00
9:53 AM,53.1,30.9,43,30.06,10.0,WNW,4.6,-,N/A,,Clear,290,2013-04-04 15:53:00
10:53 AM,60.1,27.0,28,30.04,10.0,SSW,6.9,-,N/A,,Clear,210,2013-04-04 16:53:00
11:53 AM,64.9,24.1,21,30.02,10.0,SW,16.1,21.9,N/A,,Clear,230,2013-04-04 17:53:00
12:53 PM,66.9,21.9,18,30.00,10.0,SSW,15.0,28.8,N/A,,Clear,210,2013-04-04 18:53:00
1:53 PM,66.0,21.0,18,30.00,10.0,SW,19.6,26.5,N/A,,Clear,230,2013-04-04 19:53:00
2:53 PM,66.9,19.0,16,29.97,10.0,SSW,17.3,26.5,N/A,,Clear,210,2013-04-04 20:53:00
3:53 PM,66.9,19.0,16,29.96,10.0,SW,19.6,26.5,N/A,,Clear,220,2013-04-04 21:53:00
4:53 PM,64.9,19.9,18,29.95,10.0,SW,19.6,26.5,N/A,,Clear,220,2013-04-04 22:53:00
5:53 PM,64.0,19.9,18,29.95,10.0,SSW,18.4,25.3,N/A,,Clear,210,2013-04-04 23:53:00
6:53 PM,64.0,21.0,19,29.94,10.0,SSW,15.0,-,N/A,,Clear,200,2013-04-05 00:53:00
7:53 PM,59.0,19.9,22,29.94,10.0,South,11.5,-,N/A,,Clear,180,2013-04-05 01:53:00
8:53 PM,55.9,21.0,26,29.92,10.0,South,8.1,-,N/A,,Clear,190,2013-04-05 02:53:00
9:53 PM,57.9,21.9,25,29.89,10.0,South,5.8,-,N/A,,Scattered Clouds,180,2013-04-05 03:53:00
10:53 PM,54.0,23.0,30,29.88,10.0,SSW,6.9,-,N/A,,Overcast,200,2013-04-05 04:53:00
11:53 PM,55.9,23.0,28,29.84,10.0,SW,5.8,-,N/A,,Overcast,220,2013-04-05 05:53:00